User: anonymous   Login
Location: Unspecified
(0.0000°N, 0.0000°E)
Time: 16:20:44
(UTC+00:00)
Language:

TET - Orbit

View from above orbital plane
View from above orbital plane
View from above satellite
View from above satellite

Ground track
Ground track

The orbit data is extracted from the following two-line orbital elements,

1 38710U 12039D   21175.14802202  .00005599  00000-0  86040-4 0  9999
2 38710  97.5547 229.3016 0000142 172.5486 187.5769 15.54709847501561
Epoch (UTC): 24 June 2021 03:33:09
Eccentricity: 0.0000142
inclination: 97.5547°
perigee height: 403 km
apogee height: 403 km
right ascension of ascending node: 229.3016°
argument of perigee: 172.5486°
revolutions per day: 15.54709847
mean anomaly at epoch: 187.5769°
orbit number at epoch: 50156

The dashed part of the orbit path shows where the satellite is in the earth's shadow,  

DLR